College Station, TX

8:35 PM CDT on October 19, 2017 (GMT -0500)
Easterwood

Weather History for KCLL - November, 2013

Change the Weather History Date:

Saturday, November 16, 2013

  Actual Average Record
Temperature  
Mean Temperature 71 °F 60 °F  
Max Temperature 80 °F 71 °F 90 °F (1921)
Min Temperature 61 °F 50 °F 27 °F (1920)
Degree Days  
Heating Degree Days 0 6  
Month to date heating degree days 96 71  
Since 1 July heating degree days 115 108  
Cooling Degree Days 6 2  
Month to date cooling degree days 9 45  
Year to date cooling degree days 3242 3057  
Growing Degree Days 21 (Base 50)    
Moisture  
Dew Point 67 °F    
Average Humidity 85    
Maximum Humidity 100    
Minimum Humidity 69    
Precipitation  
Precipitation 0.00 in 0.11 in 2.42 in (1946)
Month to date precipitation 0.92 1.82  
Year to date precipitation 34.94 35.43  
Sea Level Pressure  
Sea Level Pressure 29.85 in    
Wind  
Wind Speed 10 mph (SSE)    
Max Wind Speed 23 mph    
Max Gust Speed 26 mph    
Visibility 8 miles    
Events Fog    
T = Trace of Precipitation, MM = Missing Value Source: NWS Daily Summary

Daily Weather History Graph

Daily Weather History Graph

Search for Another Location

Airport or City:

Trip Planner

Search our weather history database for the weather conditions in past years. The results will help you decide how hot, cold, wet, or windy it might be!

Date:

Astronomy

Nov. 16, 2013 Rise Set
Actual Time 6:52 AM CST 5:27 PM CST
Civil Twilight 6:27 AM CST 5:53 PM CST
Nautical Twilight 5:57 AM CST 6:22 PM CST
Astronomical Twilight 5:29 AM CST 6:50 PM CST
Moon 5:01 PM CST (11/16) 5:53 AM CST (11/16)
Length of Visible Light 11h 26m
Length of Day
10h 34m
Waxing Gibbous, 99% of the Moon is Illuminated
Nov 16
Waxing Gibbous
Nov 17
Full
Nov 25
Last Quarter
Dec 2
New
Dec 9
First Quarter

Hourly Weather History & Observations

Time (CST) Temp. Heat Index Dew Point Humidity Pressure Visibility Wind Dir Wind Speed Gust Speed Precip Events Conditions
12:53 AM 63.0 °F - 62.1 °F 97% 29.92 in 10.0 mi SSE 8.1 mph - N/A   Clear
1:19 AM 62.6 °F - 62.6 °F 100% 29.93 in 9.0 mi SSE 5.8 mph - N/A   Partly Cloudy
1:45 AM 62.6 °F - 62.6 °F 100% 29.92 in 8.0 mi SSE 6.9 mph - N/A   Mostly Cloudy
1:53 AM 63.0 °F - 62.1 °F 97% 29.90 in 9.0 mi SSE 5.8 mph - N/A   Scattered Clouds
2:53 AM 63.0 °F - 62.1 °F 97% 29.89 in 10.0 mi South 6.9 mph - N/A   Clear
3:53 AM 62.1 °F - 61.0 °F 96% 29.88 in 6.0 mi South 3.5 mph - N/A   Clear
4:53 AM 62.1 °F - 61.0 °F 96% 29.89 in 4.0 mi SSE 4.6 mph - N/A   Mostly Cloudy
5:21 AM 62.6 °F - 62.6 °F 100% 29.90 in 5.0 mi South 5.8 mph - N/A   Partly Cloudy
5:48 AM 62.6 °F - 60.8 °F 94% 29.89 in 3.0 mi SSE 6.9 mph - N/A   Mostly Cloudy
5:53 AM 62.1 °F - 61.0 °F 96% 29.88 in 3.0 mi SSE 6.9 mph - N/A   Mostly Cloudy
6:31 AM 62.6 °F - 62.6 °F 100% 29.90 in 2.5 mi SSE 8.1 mph - N/A   Overcast
6:53 AM 63.0 °F - 63.0 °F 100% 29.90 in 2.0 mi South 9.2 mph - N/A   Overcast
7:20 AM 64.4 °F - 64.4 °F 100% 29.91 in 1.5 mi South 9.2 mph - N/A   Overcast
7:31 AM 64.4 °F - 64.4 °F 100% 29.91 in 0.5 mi SSE 8.1 mph - N/A Fog Fog
7:53 AM 64.0 °F - 64.0 °F 100% 29.90 in 0.5 mi SSE 9.2 mph - N/A Fog Fog
8:40 AM 64.4 °F - 64.4 °F 100% 29.91 in 1.2 mi South 8.1 mph - N/A   Overcast
8:53 AM 64.9 °F - 64.9 °F 100% 29.91 in 2.0 mi South 6.9 mph - N/A   Overcast
9:03 AM 66.2 °F - 64.4 °F 94% 29.93 in 4.0 mi SSE 8.1 mph - N/A   Overcast
9:53 AM 68.0 °F - 66.9 °F 96% 29.92 in 9.0 mi SSE 8.1 mph - N/A   Overcast
10:22 AM 71.6 °F - 66.2 °F 83% 29.92 in 10.0 mi South 11.5 mph - N/A   Overcast
10:31 AM 73.4 °F - 66.2 °F 78% 29.91 in 10.0 mi SSE 16.1 mph - N/A   Mostly Cloudy
10:53 AM 73.9 °F - 68.0 °F 82% 29.89 in 10.0 mi South 12.7 mph - N/A   Mostly Cloudy
11:04 AM 75.2 °F - 68.0 °F 78% 29.89 in 10.0 mi South 13.8 mph - N/A   Mostly Cloudy
11:21 AM 75.2 °F - 68.0 °F 78% 29.89 in 10.0 mi South 11.5 mph 24.2 mph N/A   Scattered Clouds
11:39 AM 75.2 °F - 69.8 °F 83% 29.88 in 10.0 mi South 13.8 mph - N/A   Mostly Cloudy
11:53 AM 75.9 °F - 69.1 °F 79% 29.86 in 10.0 mi South 11.5 mph - N/A   Mostly Cloudy
12:51 PM 77.0 °F - 68.0 °F 74% 29.83 in 10.0 mi South 11.5 mph 23.0 mph N/A   Overcast
12:53 PM 77.0 °F - 69.1 °F 76% 29.82 in 10.0 mi South 10.4 mph 20.7 mph N/A   Overcast
1:53 PM 78.1 °F - 69.1 °F 74% 29.79 in 10.0 mi South 13.8 mph - N/A   Overcast
2:02 PM 78.8 °F - 69.8 °F 74% 29.79 in 10.0 mi South 11.5 mph - N/A   Overcast
2:45 PM 78.8 °F - 69.8 °F 74% 29.78 in 10.0 mi South 6.9 mph - N/A   Overcast
2:53 PM 78.1 °F - 70.0 °F 76% 29.77 in 10.0 mi South 9.2 mph - N/A   Overcast
3:02 PM 78.8 °F - 69.8 °F 74% 29.77 in 10.0 mi SSE 11.5 mph - N/A   Overcast
3:11 PM 78.8 °F - 69.8 °F 74% 29.77 in 10.0 mi South 8.1 mph - N/A   Overcast
3:48 PM 80.6 °F 83.9 °F 69.8 °F 70% 29.77 in 10.0 mi South 13.8 mph - N/A   Overcast
3:53 PM 80.1 °F 83.2 °F 70.0 °F 71% 29.76 in 10.0 mi SSE 13.8 mph - N/A   Overcast
4:53 PM 78.1 °F - 69.1 °F 74% 29.77 in 10.0 mi SSE 15.0 mph - N/A   Overcast
5:53 PM 75.9 °F - 70.0 °F 82% 29.78 in 10.0 mi SSE 15.0 mph 23.0 mph N/A   Overcast
6:53 PM 75.0 °F - 70.0 °F 84% 29.79 in 10.0 mi South 15.0 mph 21.9 mph N/A   Overcast
7:53 PM 75.0 °F - 70.0 °F 84% 29.80 in 10.0 mi South 12.7 mph - N/A   Overcast
8:53 PM 73.9 °F - 71.1 °F 91% 29.79 in 10.0 mi South 16.1 mph 21.9 mph N/A   Clear
9:27 PM 73.4 °F - 71.6 °F 94% 29.81 in 10.0 mi South 13.8 mph - N/A   Mostly Cloudy
9:53 PM 73.9 °F - 71.1 °F 91% 29.81 in 10.0 mi South 9.2 mph - N/A   Overcast
10:53 PM 73.9 °F - 72.0 °F 93% 29.82 in 10.0 mi South 9.2 mph - N/A   Overcast
11:31 PM 73.4 °F - 71.6 °F 94% 29.81 in 10.0 mi SSE 12.7 mph - N/A   Mostly Cloudy
11:53 PM 73.9 °F - 72.0 °F 93% 29.80 in 10.0 mi South 11.5 mph - N/A   Mostly Cloudy